Condicions actuals
Mostly Clear
Conditions



Pressió:
1019.92 (hPa) - 30.12 (inHG)
Visibilitat:

10.0 (km) - 6.2 (miles)
Base de Núvols

Clar (Mts) - Clar (Feets)
   Temperatura
11  °C
Temperatura
10  °C
P.ros.
94  %
 Humitat
   Velocitat del Vent
5  km/h
3  kts
3  mph
1.3  m/s
   Vent Direcció
N
45°
E
90°
135°
S
180°
225°
O
270°
315°
 300°

Oest N
Oest
   Airport Data
LELL
Sabadell Airfield
Metar :LELL 230100Z AUTO 30003KT CAVOK 11/10 Q1020
Sat 23rd October 03:00 am
   Raw Metar Info
Raw METAR is the most common format in the world for the transmission of observational weather data. It is highly standardized through the International Civil Aviation Organization (ICAO), which allows it to be understood throughout most of the world.
   API Info
Data Provided by
https://www.checkwx.com/weather/LELL

Aviation Weather providing METAR, TAF, AIRMET, SIGMET and OUTLOOK Weather Reports
   © Info
CSS/SVG/PHP scripts were developed by weather34.com for use in the weather34 template © 2015-2021

Guide Info provided by Metar-Wikipedia